• In Hungary
  • List of Countries
  • For 7 days
  • Water Temperature
  • Satellite Maps
  • Weather Map
  • News
  • Weather Widgets
  • user-avatar
    Login

    Hourly Weather Dlugowizna

    Today, 21 June, Thursday

    Time Temperature Precipitation Wind Pressure Humidity
    00:00 +21°C° 0 mm 2 mps 748 mmHg 69%
    01:00 +21°C° 0 mm 2 mps 747 mmHg 70%
    02:00 +20°C° 0 mm 2 mps 747 mmHg 71%
    03:00 +20°C° 0 mm 2 mps 747 mmHg 73%
    04:00 +19°C° 0 mm 2 mps 746 mmHg 75%
    05:00 +21°C° 0 mm 3 mps 746 mmHg 72%
    06:00 +22°C° 0 mm 3 mps 746 mmHg 69%
    07:00 +25°C° 0 mm 4 mps 745 mmHg 65%
    08:00 +26°C° 0 mm 4 mps 744 mmHg 61%
    09:00 +28°C° 0 mm 4 mps 744 mmHg 56%
    10:00 +29°C° 0 mm 5 mps 743 mmHg 52%
    11:00 +30°C° 0 mm 5 mps 742 mmHg 51%
    12:00 +30°C° 0 mm 5 mps 742 mmHg 49%
    13:00 +32°C° 0 mm 6 mps 741 mmHg 48%
    14:00 +30°C° 0.2 mm 5 mps 740 mmHg 51%
    15:00 +30°C° 0.2 mm 5 mps 740 mmHg 54%
    16:00 +30°C° 0.2 mm 5 mps 739 mmHg 57%
    17:00 +27°C° 1.2 mm 6 mps 739 mmHg 65%
    18:00 +24°C° 1.2 mm 7 mps 740 mmHg 73%
    19:00 +21°C° 1.2 mm 8 mps 740 mmHg 81%
    20:00 +18°C° 0.3 mm 7 mps 741 mmHg 82%
    21:00 +16°C° 0.3 mm 6 mps 741 mmHg 83%
    22:00 +14°C° 0.3 mm 6 mps 742 mmHg 84%
    23:00 +13°C° 0 mm 5 mps 743 mmHg 83%

    Tomorrow, 22 June, Friday

    Time Temperature Precipitation Wind Pressure Humidity
    00:00 +12°C° 0 mm 5 mps 743 mmHg 83%
    01:00 +11°C° 0 mm 4 mps 744 mmHg 82%
    02:00 +11°C° 0 mm 4 mps 744 mmHg 81%
    03:00 +9°C° 0 mm 5 mps 744 mmHg 80%
    04:00 +9°C° 0 mm 5 mps 745 mmHg 79%
    05:00 +10°C° 0 mm 5 mps 745 mmHg 75%
    06:00 +10°C° 0 mm 5 mps 745 mmHg 71%
    07:00 +11°C° 0 mm 6 mps 746 mmHg 67%
    08:00 +13°C° 0 mm 6 mps 746 mmHg 62%
    09:00 +14°C° 0 mm 6 mps 746 mmHg 57%
    10:00 +15°C° 0 mm 6 mps 746 mmHg 52%
    11:00 +16°C° 0 mm 6 mps 746 mmHg 51%
    12:00 +16°C° 0 mm 6 mps 746 mmHg 49%
    13:00 +17°C° 0 mm 6 mps 746 mmHg 48%
    14:00 +17°C° 0.1 mm 6 mps 745 mmHg 50%
    15:00 +16°C° 0.1 mm 5 mps 745 mmHg 52%
    16:00 +16°C° 0.1 mm 5 mps 745 mmHg 54%
    17:00 +17°C° 0 mm 4 mps 745 mmHg 58%
    18:00 +15°C° 0 mm 4 mps 746 mmHg 63%
    19:00 +14°C° 0 mm 3 mps 746 mmHg 67%
    20:00 +13°C° 0 mm 3 mps 746 mmHg 71%
    21:00 +12°C° 0 mm 3 mps 746 mmHg 74%
    22:00 +10°C° 0 mm 3 mps 746 mmHg 77%
    23:00 +10°C° 0 mm 3 mps 746 mmHg 80%

    Day after tomorrow, 23 June, Saturday

    Time Temperature Precipitation Wind Pressure Humidity
    00:00 +10°C° 0 mm 3 mps 746 mmHg 83%
    01:00 +9°C° 0 mm 3 mps 746 mmHg 86%
    02:00 +9°C° 0 mm 3 mps 746 mmHg 87%
    03:00 +9°C° 0 mm 3 mps 746 mmHg 89%
    04:00 +8°C° 0 mm 3 mps 746 mmHg 91%
    05:00 +10°C° 0 mm 3 mps 746 mmHg 84%
    06:00 +12°C° 0 mm 4 mps 746 mmHg 77%
    07:00 +14°C° 0 mm 5 mps 746 mmHg 71%
    08:00 +14°C° 0.3 mm 5 mps 746 mmHg 69%
    09:00 +15°C° 0.3 mm 5 mps 746 mmHg 68%
    10:00 +15°C° 0.3 mm 6 mps 746 mmHg 67%
    11:00 +16°C° 0.3 mm 6 mps 745 mmHg 65%
    12:00 +16°C° 0.3 mm 6 mps 745 mmHg 64%
    13:00 +16°C° 0.3 mm 6 mps 745 mmHg 63%
    14:00 +16°C° 0.4 mm 6 mps 745 mmHg 64%
    15:00 +16°C° 0.4 mm 6 mps 745 mmHg 65%
    16:00 +16°C° 0.4 mm 6 mps 745 mmHg 66%
    17:00 +15°C° 0.3 mm 5 mps 745 mmHg 71%
    18:00 +15°C° 0.3 mm 4 mps 745 mmHg 75%
    19:00 +14°C° 0.3 mm 4 mps 745 mmHg 80%
    20:00 +13°C° 0.3 mm 4 mps 745 mmHg 84%
    21:00 +12°C° 0.3 mm 4 mps 745 mmHg 87%
    22:00 +11°C° 0.3 mm 4 mps 745 mmHg 91%
    23:00 +11°C° 0 mm 4 mps 745 mmHg 92%

    24 June, Sunday

    Time Temperature Precipitation Wind Pressure Humidity
    00:00 +11°C° 0 mm 4 mps 745 mmHg 93%
    01:00 +10°C° 0 mm 4 mps 745 mmHg 94%
    02:00 +10°C° 0 mm 3 mps 745 mmHg 94%
    03:00 +9°C° 0 mm 3 mps 745 mmHg 94%
    04:00 +9°C° 0 mm 3 mps 745 mmHg 95%
    05:00 +10°C° 0 mm 3 mps 745 mmHg 90%
    06:00 +11°C° 0 mm 4 mps 745 mmHg 86%
    07:00 +13°C° 0 mm 4 mps 745 mmHg 81%
    08:00 +14°C° 0.4 mm 4 mps 745 mmHg 77%
    09:00 +15°C° 0.4 mm 5 mps 745 mmHg 73%
    10:00 +16°C° 0.4 mm 5 mps 745 mmHg 68%
    11:00 +16°C° 0.6 mm 6 mps 745 mmHg 68%
    12:00 +16°C° 0.6 mm 6 mps 745 mmHg 68%
    13:00 +17°C° 0.6 mm 6 mps 745 mmHg 67%
    14:00 +17°C° 0.5 mm 6 mps 745 mmHg 67%
    15:00 +17°C° 0.5 mm 5 mps 745 mmHg 66%
    16:00 +17°C° 0.5 mm 5 mps 745 mmHg 66%
    17:00 +17°C° 0.2 mm 4 mps 746 mmHg 69%
    18:00 +17°C° 0.2 mm 3 mps 746 mmHg 73%
    19:00 +16°C° 0.2 mm 2 mps 746 mmHg 76%
    20:00 +15°C° 0 mm 2 mps 746 mmHg 79%
    21:00 +14°C° 0 mm 2 mps 746 mmHg 83%
    22:00 +12°C° 0 mm 2 mps 747 mmHg 86%
    23:00 +12°C° 0 mm 2 mps 747 mmHg 87%

    25 June, Monday

    Time Temperature Precipitation Wind Pressure Humidity
    00:00 +12°C° 0 mm 1 mps 747 mmHg 88%
    01:00 +11°C° 0 mm 1 mps 747 mmHg 89%
    02:00 +11°C° 0 mm 1 mps 747 mmHg 90%
    03:00 +11°C° 0 mm 1 mps 747 mmHg 90%
    04:00 +11°C° 0 mm 1 mps 747 mmHg 90%
    05:00 +13°C° 0 mm 1 mps 748 mmHg 84%
    06:00 +14°C° 0 mm 1 mps 748 mmHg 78%
    07:00 +16°C° 0 mm 1 mps 748 mmHg 72%
    08:00 +18°C° 0.1 mm 1 mps 749 mmHg 65%
    09:00 +20°C° 0.1 mm 1 mps 749 mmHg 59%
    10:00 +20°C° 0.1 mm 2 mps 749 mmHg 52%
    11:00 +21°C° 0.1 mm 2 mps 749 mmHg 50%
    12:00 +21°C° 0.1 mm 2 mps 749 mmHg 47%
    13:00 +23°C° 0.1 mm 2 mps 749 mmHg 45%
    14:00 +23°C° 0 mm 2 mps 749 mmHg 45%
    15:00 +23°C° 0 mm 2 mps 749 mmHg 44%
    16:00 +23°C° 0 mm 2 mps 749 mmHg 44%
    17:00 +21°C° 0 mm 2 mps 749 mmHg 50%
    18:00 +20°C° 0 mm 2 mps 749 mmHg 55%
    19:00 +18°C° 0 mm 2 mps 750 mmHg 61%
    20:00 +17°C° 0 mm 2 mps 750 mmHg 64%
    21:00 +16°C° 0 mm 1 mps 750 mmHg 66%
    22:00 +15°C° 0 mm 1 mps 750 mmHg 69%
    23:00 +14°C° 0 mm 1 mps 750 mmHg 71%

    26 June, Tuesday

    Time Temperature Precipitation Wind Pressure Humidity
    00:00 +14°C° 0 mm 1 mps 750 mmHg 73%
    01:00 +13°C° 0 mm 1 mps 750 mmHg 75%
    02:00 +13°C° 0 mm 1 mps 750 mmHg 76%
    03:00 +13°C° 0 mm 1 mps 750 mmHg 77%
    04:00 +13°C° 0 mm 1 mps 750 mmHg 77%
    05:00 +15°C° 0 mm 1 mps 750 mmHg 72%
    06:00 +16°C° 0 mm 1 mps 751 mmHg 67%
    07:00 +19°C° 0 mm 1 mps 751 mmHg 62%
    08:00 +21°C° 0.1 mm 1 mps 751 mmHg 58%
    09:00 +21°C° 0.1 mm 2 mps 751 mmHg 54%
    10:00 +23°C° 0.1 mm 2 mps 750 mmHg 50%
    11:00 +23°C° 0.1 mm 2 mps 750 mmHg 50%
    12:00 +23°C° 0.1 mm 2 mps 750 mmHg 51%
    13:00 +22°C° 0.1 mm 3 mps 750 mmHg 51%
    14:00 +22°C° 0 mm 3 mps 749 mmHg 51%
    15:00 +22°C° 0 mm 3 mps 749 mmHg 50%
    16:00 +22°C° 0 mm 3 mps 749 mmHg 50%
    17:00 +21°C° 0 mm 2 mps 749 mmHg 56%
    18:00 +20°C° 0 mm 2 mps 749 mmHg 62%
    19:00 +21°C° 0 mm 1 mps 749 mmHg 67%
    20:00 +19°C° 0.1 mm 1 mps 749 mmHg 71%
    21:00 +18°C° 0.1 mm 1 mps 749 mmHg 75%
    22:00 +16°C° 0.1 mm 1 mps 749 mmHg 78%
    23:00 +15°C° 0 mm 1 mps 749 mmHg 81%
    Show more